| time (UTC) | temp C | wind direction | speed KPH | gust KPH | rain 1hr cm | rain 24hr cm | rain mn cm | humidity % | barometer mb |
| 20260504204625 | 11 | 121 | 8.0 | 27.4 | 0.00 | 0.00 | 0.00 | 34 | 1015.1 |
| 20260504203051 | 12 | 79 | 9.7 | 25.7 | 0.00 | 0.00 | 0.00 | 34 | 1015.1 |
| 20260504201546 | 13 | 27 | 11.3 | 32.2 | 0.00 | 0.00 | 0.00 | 33 | 1014.8 |
| 20260504200056 | 12 | 53 | 11.3 | 20.9 | 0.00 | 0.00 | 0.00 | 33 | 1014.5 |
| 20260504194549 | 13 | 119 | 11.3 | 27.4 | 0.00 | 0.00 | 0.00 | 32 | 1014.7 |
| 20260504193054 | 12 | 90 | 11.3 | 27.4 | 0.00 | 0.00 | 0.00 | 33 | 1014.8 |
| 20260504191552 | 12 | 126 | 14.5 | 27.4 | 0.00 | 0.00 | 0.00 | 34 | 1014.8 |
| 20260504190057 | 13 | 42 | 12.9 | 27.4 | 0.00 | 0.00 | 0.00 | 34 | 1015.0 |
| 20260504184600 | 13 | 92 | 14.5 | 32.2 | 0.00 | 0.00 | 0.00 | 33 | 1014.8 |
| 20260504183053 | 13 | 67 | 12.9 | 27.4 | 0.00 | 0.00 | 0.00 | 34 | 1014.7 |
| 20260504181555 | 12 | 46 | 11.3 | 22.5 | 0.00 | 0.00 | 0.00 | 36 | 1014.9 |
| 20260504180054 | 12 | 77 | 11.3 | 27.4 | 0.00 | 0.00 | 0.00 | 38 | 1014.8 |
| 20260504174550 | 12 | 98 | 11.3 | 25.7 | 0.00 | 0.00 | 0.00 | 38 | 1015.0 |
| 20260504173045 | 12 | 91 | 9.7 | 25.7 | 0.00 | 0.00 | 0.00 | 39 | 1015.0 |
| 20260504171548 | 11 | 86 | 11.3 | 25.7 | 0.00 | 0.00 | 0.00 | 42 | 1015.1 |
| 20260504081548 | 9 | 126 | 4.8 | 12.9 | 0.00 | 0.00 | 0.00 | 55 | 1014.8 |
| 20260504044546 | 13 | 122 | 8.0 | 20.9 | 0.00 | 0.00 | 0.00 | 39 | 1009.8 |
| 20260504043048 | 13 | 114 | 4.8 | 14.5 | 0.00 | 0.00 | 0.00 | 39 | 1009.2 |
| 20260504041549 | 14 | 119 | 3.2 | 12.9 | 0.00 | 0.00 | 0.00 | 38 | 1008.7 |
| 20260504040048 | 15 | 121 | 1.6 | 12.9 | 0.00 | 0.00 | 0.00 | 37 | 1008.4 |
| 20260504034541 | 15 | 126 | 3.2 | 16.1 | 0.00 | 0.00 | 0.00 | 36 | 1008.0 |
| 20260504033047 | 16 | 131 | 4.8 | 14.5 | 0.00 | 0.00 | 0.00 | 35 | 1007.9 |
| 20260504031545 | 16 | 101 | 3.2 | 14.5 | 0.00 | 0.00 | 0.00 | 35 | 1007.6 |
| 20260504030050 | 17 | 91 | 3.2 | 17.7 | 0.00 | 0.00 | 0.00 | 32 | 1007.3 |
| 20260504024545 | 18 | 105 | 0.0 | 4.8 | 0.00 | 0.00 | 0.00 | 29 | 1007.1 |
| 20260504023043 | 19 | 114 | 1.6 | 16.1 | 0.00 | 0.00 | 0.00 | 26 | 1007.0 |
| 20260504021547 | 20 | 0 | 1.6 | 6.4 | 0.00 | 0.00 | 0.00 | 22 | 1006.9 |
| 20260504020045 | 21 | 116 | 3.2 | 16.1 | 0.00 | 0.00 | 0.00 | 21 | 1007.0 |
| 20260504014559 | 21 | 101 | 6.4 | 16.1 | 0.00 | 0.00 | 0.00 | 20 | 1007.0 |
| 20260504013050 | 22 | 86 | 6.4 | 16.1 | 0.00 | 0.00 | 0.00 | 20 | 1007.0 |
| 20260504011543 | 22 | 105 | 6.4 | 17.7 | 0.00 | 0.00 | 0.00 | 21 | 1006.9 |
| 20260504010053 | 22 | 98 | 4.8 | 20.9 | 0.00 | 0.00 | 0.00 | 20 | 1007.1 |
| 20260504004548 | 23 | 97 | 6.4 | 19.3 | 0.00 | 0.00 | 0.00 | 20 | 1007.1 |
| 20260504003051 | 23 | 130 | 8.0 | 17.7 | 0.00 | 0.00 | 0.00 | 21 | 1007.3 |
| 20260504001545 | 23 | 100 | 8.0 | 20.9 | 0.00 | 0.00 | 0.00 | 19 | 1007.3 |
| 20260504000054 | 23 | 119 | 6.4 | 19.3 | 0.00 | 0.00 | 0.00 | 20 | 1007.3 |
| 20260503234550 | 23 | 59 | 6.4 | 17.7 | 0.00 | 0.00 | 0.00 | 20 | 1007.5 |
| 20260503233046 | 23 | 99 | 6.4 | 20.9 | 0.00 | 0.00 | 0.00 | 20 | 1007.6 |
| 20260503231551 | 23 | 115 | 4.8 | 17.7 | 0.00 | 0.00 | 0.00 | 19 | 1007.6 |
| 20260503230045 | 23 | 50 | 9.7 | 24.1 | 0.00 | 0.00 | 0.00 | 19 | 1007.6 |
| 20260503224542 | 23 | 98 | 8.0 | 19.3 | 0.00 | 0.00 | 0.00 | 20 | 1007.7 |
| 20260503223042 | 23 | 100 | 11.3 | 22.5 | 0.00 | 0.00 | 0.00 | 20 | 1007.9 |
| 20260503221546 | 23 | 61 | 6.4 | 20.9 | 0.00 | 0.00 | 0.00 | 20 | 1008.2 |
| 20260503220054 | 23 | 26 | 8.0 | 19.3 | 0.00 | 0.00 | 0.00 | 19 | 1008.4 |
| 20260503214543 | 23 | 52 | 9.7 | 20.9 | 0.00 | 0.00 | 0.00 | 20 | 1008.5 |
| 20260503213047 | 23 | 40 | 6.4 | 19.3 | 0.00 | 0.00 | 0.00 | 21 | 1008.6 |
| 20260503211553 | 23 | 78 | 8.0 | 19.3 | 0.00 | 0.00 | 0.00 | 20 | 1009.0 |